sat.trackr.live / text

‹ back to catalog

STARLINK-31475

NORAD 59310 · 2024-056Q

PAYLOAD ACTIVE UNKNOWN

§ Identity

Operator
Country
US
Launch date
2024-03-24
Launch site
AFETR
Launch vehicle
Mass (kg)
RCS (m²)

Purposes: comms

External: N2YO · Heavens-Above · Gunter

§ Orbital elements

Epoch: 2026-09-20T13:18:50.583168Z

Period
94.27 min
Inclination
43.0019°
Eccentricity
0.0000888
Mean motion
15.27574880 rev/d
Perigee alt
482.5 km
Apogee alt
483.7 km
Semi-major
6,861.2 km
B*
8.1523e-6
RAAN
206.9960°
Arg perigee
279.3124°
Mean anomaly
80.7628°
Rev number
14,111

§ Raw data

STARLINK-314751 59310U 24056Q   26263.55475212 -.00000038  00000+0  81523-5 0  99902 59310  43.0019 206.9960 0000888 279.3124  80.7628 15.27574880141117

JSON: /api/v1/satellites/59310 · /tle

For live sub-satellite position, see the globe view (requires WebGL).

§ Visibility from observer

Set your observer location to see the next 7 days of passes ≥ 10°. The values pass through the URL so the page stays shareable.

No JS? Fill the form by hand. The geolocation button needs JavaScript.